Torna al catalogo

SL-16 DEB

AttivoLEO
NORAD 22367·DEBRIS·🇷🇺 Russia

Lanciato Dec 25, 1992 da Baikonur Cosmodrome

Loading…

Prossimi Passaggi (prossime 24 ore)

TLE

AggiornatoSource: Space-Track

Epoca: Sep 13, 2026, 23:21 UTC

1 22367U 92093BG  26256.97322652  .00000009  00000-0  43726-4 0  9995
2 22367  70.8997  81.7948 0188805 265.1012 249.7710 13.83434741700359

Traccia SL-16 DEB in tempo reale con AllMySat

Download on the App Store